Temperature
16 16 16 16 19 20 20 19 18 18 17 15 15 16 17 17 17 16 11 11 11 11 11 11 11 12 12 12 12 12 13 13 13 13 13 13 14 14 14 14 14 14 14 14 14 14 14 14 14
16 16 16 17 20 20 20 19 18 17 16 13 13 14 15 14 12 11 10 11 11 11 11 11 11 11 12 12 12 12 12 13 13 13 13 13 13 13 13 14 14 14 14 14 14 14 14 14 14
15 16 16 19 19 20 19 18 17 15 13 13 13 13 13 13 10 10 10 10 10 10 10 11 11 11 11 12 12 12 12 12 12 13 13 13 13 13 13 13 13 14 14 14 14 14 14 14 14
15 15 16 18 18 18 18 17 16 14 13 12 13 13 11 10 10 10 10 10 10 10 10 11 11 11 11 11 11 12 12 12 12 12 12 12 12 13 13 13 13 13 13 13 14 14 14 14 14
15 16 18 17 18 17 16 15 14 15 14 12 13 13 11 10 10 10 10 10 10 10 10 10 10 11 11 11 11 11 11 11 11 11 12 12 12 12 12 12 13 13 13 13 13 13 13 13 14
15 17 18 18 18 16 15 13 13 14 14 12 12 13 11 9 9 9 9 9 9 9 10 10 10 10 10 10 11 11 11 11 11 11 11 11 12 12 12 12 12 12 12 12 13 13 13 13 13
16 17 17 18 17 16 15 12 13 14 14 12 11 13 10 9 9 9 9 9 9 9 9 9 9 10 10 10 10 10 10 10 10 11 11 11 11 11 12 12 12 12 12 12 12 12 13 13 13
13 16 16 16 16 16 14 12 11 12 13 10 10 12 11 9 9 9 9 9 9 9 9 9 9 9 9 10 10 10 10 10 10 10 10 10 11 11 11 11 11 11 12 12 12 12 12 12 12
12 15 16 16 15 15 12 12 10 9 10 9 9 9 9 9 9 8 8 8 8 8 8 8 8 9 9 9 9 9 9 9 9 10 10 10 10 10 10 11 11 11 11 11 12 12 12 12 12
13 15 15 14 14 13 12 11 10 10 10 9 8 8 9 8 8 8 8 8 8 8 8 8 8 8 8 8 9 9 9 9 9 9 9 9 9 10 10 10 11 11 11 11 11 11 11 11 11
12 13 12 11 10 11 11 10 9 11 12 11 10 8 8 8 8 8 7 7 7 7 7 7 8 8 8 8 8 8 8 8 8 9 9 9 9 9 9 10 10 10 10 10 11 11 11 11 11
11 10 10 10 9 9 10 10 9 9 11 10 9 8 8 8 8 7 7 7 7 7 7 7 7 7 7 7 7 7 8 8 8 8 8 8 8 8 9 9 9 9 10 10 10 10 10 10 10
11 10 9 8 8 8 8 9 9 9 8 8 8 8 8 8 7 7 7 7 6 6 6 6 6 6 7 7 7 7 7 7 7 7 7 7 8 8 8 8 9 9 9 9 10 10 10 10 10
10 9 9 8 8 8 8 9 8 8 8 7 7 7 7 7 7 7 6 6 6 6 6 6 6 6 6 6 6 6 6 7 7 7 7 7 7 7 8 8 8 8 8 9 9 9 9 9 9
8 9 9 9 8 8 8 9 9 8 7 7 7 7 6 6 6 6 6 6 6 6 6 6 6 5 5 5 6 6 6 6 6 6 6 6 6 7 7 7 7 8 8 8 8 8 9 9 9
9 10 11 10 8 7 9 11 11 7 7 7 6 6 5 6 5 5 5 5 5 5 5 5 5 5 5 5 5 5 5 5 5 5 6 6 6 6 6 6 7 7 7 7 8 8 8 8 8
10 11 11 10 8 8 8 10 10 6 6 6 6 5 5 5 5 5 5 5 5 4 4 5 4 4 4 4 4 4 4 5 5 5 5 5 5 5 6 6 6 6 6 7 7 7 7 8 8
11 11 10 10 8 7 8 9 9 6 5 6 6 5 4 4 4 4 4 4 4 4 4 4 4 4 4 3 4 3 4 4 4 4 4 4 5 5 5 5 5 6 6 6 6 7 7 7 7
9 9 10 10 8 7 8 8 8 7 5 5 5 4 4 3 3 3 4 4 3 3 3 3 3 3 3 3 3 3 3 3 3 3 4 4 4 4 4 4 5 5 5 5 6 6 6 6 7
8 8 9 9 7 6 7 7 8 6 5 4 4 3 3 3 3 3 3 3 3 3 2 3 3 3 2 2 2 2 2 3 3 3 3 3 3 3 4 4 4 4 4 5 5 5 6 6 6
7 8 8 7 7 6 6 8 8 6 5 4 3 3 2 2 2 2 2 2 2 2 2 2 2 2 2 2 2 2 2 2 2 2 2 2 2 3 3 3 3 4 4 4 4 5 5 5 5
7 6 6 6 6 8 6 8 9 6 5 4 3 2 2 1 1 1 1 1 1 1 1 1 1 1 1 1 1 1 1 1 2 2 2 2 2 2 2 2 3 3 3 3 4 4 4 4 5
6 4 5 5 5 6 6 6 8 6 5 5 3 2 1 0 0 0 0 1 1 1 1 1 1 1 1 1 1 1 1 1 1 1 1 1 1 2 2 2 2 2 3 3 3 3 4 4 4
4 4 4 4 5 6 6 6 8 7 5 4 3 1 0 -0 -0 -0 -0 -0 0 0 0 0 0 0 0 0 0 0 0 0 0 0 0 1 1 1 1 1 1 2 2 2 3 3 3 3 3
4 5 6 6 6 7 4 5 6 5 4 3 2 1 0 -1 -1 -1 -1 -1 -1 -0 -0 -0 -0 -0 -0 -0 -0 -0 -0 -0 -0 -0 -0 -0 0 0 0 1 1 1 1 2 2 2 2 3 3
4 5 6 7 7 7 4 5 6 3 1 1 0 0 -0 -1 -1 -1 -1 -1 -1 -1 -1 -1 -1 -1 -1 -1 -1 -1 -1 -1 -1 -1 -1 -1 -1 -0 -0 -0 0 0 1 1 1 1 2 2 2
3 4 3 4 3 4 6 5 4 2 1 0 0 -0 -1 -1 -2 -2 -2 -2 -2 -1 -1 -1 -1 -1 -1 -1 -1 -1 -1 -1 -1 -1 -1 -1 -1 -1 -1 -1 -0 -0 0 0 0 1 1 1 2
2 2 3 3 4 5 6 5 5 3 2 1 0 -1 -1 -2 -2 -2 -2 -2 -2 -2 -2 -2 -1 -1 -1 -1 -2 -2 -2 -2 -2 -2 -2 -1 -1 -1 -1 -1 -1 -1 -1 -0 -0 0 0 1 1
1 1 2 3 3 4 5 6 3 2 1 1 0 -1 -2 -3 -3 -3 -3 -3 -3 -2 -2 -2 -2 -2 -2 -2 -2 -2 -2 -2 -2 -2 -2 -2 -2 -1 -1 -1 -1 -1 -1 -1 -1 -0 -0 0 0
1 2 2 2 2 2 3 4 1 0 -0 -1 -1 -2 -2 -3 -3 -3 -3 -3 -3 -3 -3 -3 -3 -3 -3 -3 -3 -3 -3 -3 -2 -2 -2 -2 -2 -2 -2 -2 -1 -1 -1 -1 -1 -1 -1 -0 -0
Wind_Speed
5 2 2 2 4 4 6 5 3 3 3 1 1 1 2 2 1 1 4 3 3 3 3 4 5 7 8 9 10 10 11 11 11 10 10 11 11 11 9 9 8 8 8 8 9 9 10 11 12
3 1 2 3 5 8 6 5 5 3 2 3 2 1 2 1 2 3 3 3 3 3 4 5 6 8 9 9 9 10 11 11 11 11 10 10 10 11 11 10 9 8 8 8 8 9 9 10 11
0 1 2 3 5 7 5 3 4 3 3 2 2 0 1 1 2 3 3 4 4 4 4 5 6 8 9 9 9 9 10 10 10 11 11 10 10 10 11 11 10 9 8 7 8 8 8 10 11
2 2 2 4 8 6 4 2 4 5 3 2 3 2 2 2 1 2 4 4 4 4 4 5 6 7 8 8 8 9 9 9 10 10 10 10 10 10 9 10 10 10 8 7 8 8 8 9 10
1 3 4 6 8 5 3 2 5 5 4 4 4 3 2 2 3 4 4 4 4 4 4 5 5 6 7 8 8 8 8 9 9 9 9 9 9 9 9 8 9 9 9 7 7 7 8 9 10
3 3 6 9 9 5 4 4 5 5 4 4 4 3 2 3 4 4 4 3 3 3 4 5 6 6 7 8 8 8 8 8 8 8 8 8 8 8 8 8 8 8 8 7 7 6 7 8 10
3 3 6 8 7 6 4 4 4 5 5 4 4 4 4 4 4 4 4 3 3 3 4 4 5 5 6 7 7 8 8 8 8 8 8 8 7 7 7 7 7 7 7 7 7 7 7 8 9
1 3 5 6 8 7 4 5 3 4 4 2 3 4 3 5 5 4 4 3 3 3 3 4 5 5 4 5 7 7 7 7 7 7 8 7 7 6 6 6 6 6 6 7 6 6 6 7 8
2 4 7 7 7 5 5 5 3 1 3 3 3 2 1 7 7 6 4 3 2 2 2 3 4 4 4 4 5 5 6 6 6 6 6 5 4 4 5 6 6 6 5 5 6 6 5 6 7
3 6 7 3 3 3 5 5 5 5 5 5 4 3 5 8 8 7 6 5 4 2 1 2 2 2 3 3 3 3 3 4 3 3 3 3 3 3 4 5 6 5 5 5 4 4 4 4 5
2 5 4 3 2 3 4 4 4 6 7 8 8 7 8 8 8 7 7 6 4 3 1 1 1 2 2 2 2 2 2 2 2 2 3 2 2 2 2 2 3 3 2 3 2 2 3 3 4
3 3 3 2 2 3 4 4 5 8 7 3 5 7 10 10 9 8 7 5 4 3 2 1 1 1 1 2 2 2 2 2 2 2 2 1 1 1 2 2 2 1 1 1 1 1 2 2 4
5 3 2 2 2 3 4 6 6 8 8 3 3 8 10 10 9 7 6 5 4 3 2 1 0 0 1 1 1 1 1 2 1 1 1 1 0 0 1 1 1 1 0 0 0 1 2 2 3
2 3 3 3 3 3 5 6 5 9 6 5 6 8 9 9 9 7 6 6 5 4 3 2 1 0 1 0 1 1 1 1 1 1 1 1 1 1 0 1 1 1 0 1 1 1 1 2 2
2 2 4 4 4 3 4 8 10 8 5 7 7 7 8 8 7 7 7 6 5 4 3 2 1 0 1 0 0 1 1 1 1 1 2 2 2 1 1 1 1 1 1 1 1 1 1 2 2
2 4 5 4 4 3 6 11 6 4 7 8 7 7 7 6 6 5 5 4 4 3 3 2 1 1 1 1 1 1 1 1 1 2 2 2 2 2 2 1 1 1 1 1 2 1 2 2 2
4 6 8 5 4 4 7 10 4 3 7 8 7 7 6 6 5 4 4 4 3 3 3 2 2 1 1 1 1 1 1 1 1 2 2 2 3 3 2 2 2 2 1 1 2 2 2 2 2
5 7 8 7 3 6 10 13 8 5 7 9 8 6 6 6 5 4 3 3 3 3 2 2 2 1 1 1 1 1 1 1 2 2 2 3 2 3 3 2 2 2 2 2 2 2 2 2 2
5 8 10 8 3 6 12 15 12 7 7 8 8 6 6 6 4 3 3 3 2 2 2 2 2 2 1 1 2 2 2 2 2 2 2 3 3 3 3 2 3 3 3 3 3 2 3 3 2
7 9 10 7 3 6 10 14 11 7 6 6 6 6 6 5 3 2 2 3 3 3 3 3 3 2 2 2 2 2 2 3 3 3 3 3 3 3 3 4 3 3 3 4 3 3 3 2 3
8 9 9 8 5 5 8 10 7 4 4 3 4 4 4 4 4 3 3 3 3 3 3 3 3 3 3 2 2 2 2 2 3 3 3 4 4 4 4 4 4 4 4 4 4 4 4 4 3
8 5 8 8 7 6 4 8 6 5 4 4 4 4 4 4 4 3 4 3 4 3 3 3 4 3 3 3 3 4 4 4 5 4 4 4 5 5 5 5 5 5 4 5 5 4 4 5 4
4 3 5 7 8 8 7 7 6 3 5 5 4 4 4 4 4 4 4 4 4 3 3 3 3 4 4 4 4 5 5 4 4 4 5 4 4 5 5 5 5 6 5 6 5 5 5 5 5
2 2 2 4 5 8 8 9 7 4 5 4 4 4 4 4 4 3 3 3 3 3 3 3 3 3 4 4 5 5 6 5 5 6 5 5 4 4 5 6 5 6 6 6 6 6 6 6 6
2 3 3 4 5 6 4 7 7 2 2 4 4 5 4 3 3 3 2 2 3 3 3 3 3 4 4 4 5 6 6 7 7 6 6 5 4 5 6 6 6 5 6 7 7 6 6 6 7
4 4 4 5 6 5 4 8 4 1 1 2 3 4 4 3 3 3 3 3 3 3 3 3 4 5 4 5 5 6 6 5 5 6 6 6 5 6 6 7 6 6 7 7 7 7 7 6 7
3 4 3 3 4 6 6 5 4 0 2 3 3 3 4 4 4 3 3 3 3 3 3 4 4 5 4 4 5 5 6 6 6 6 6 6 6 5 7 7 7 7 7 7 7 7 7 7 7
2 2 2 4 5 7 7 6 4 2 3 4 4 4 5 4 4 4 3 4 4 4 4 4 4 5 5 4 4 4 5 6 6 6 6 7 7 7 7 7 7 7 7 8 8 7 8 8 8
3 3 4 4 4 5 7 4 1 2 2 3 3 4 4 4 4 4 4 4 4 4 4 4 4 5 5 4 4 5 5 5 6 6 6 7 7 7 7 7 8 8 8 8 8 8 9 9 9
3 4 5 4 5 5 6 5 3 2 3 3 4 4 4 4 4 4 4 5 4 5 5 5 5 5 5 5 5 5 5 5 6 6 6 7 7 7 8 8 8 8 8 8 9 9 9 10 10
Wind_Direction
344 327 239 213 204 218 230 220 213 187 186 151 109 184 194 188 232 110 89 95 83 84 59 64 56 63 66 63 61 62 61 62 59 57 58 57 57 58 60 63 70 80 84 91 98 104 106 105 104
338 286 206 207 227 227 228 221 211 205 122 125 132 170 178 156 57 94 119 105 101 91 74 66 65 63 66 65 61 62 61 59 59 57 56 55 55 56 57 58 60 69 78 88 94 101 107 108 107
25 313 202 194 223 235 225 200 203 151 124 163 162 201 240 141 133 125 105 123 111 93 82 76 68 65 63 65 65 65 60 57 56 55 53 53 52 54 56 54 53 57 69 86 97 99 106 109 109
206 167 181 217 224 234 242 195 171 164 171 191 181 151 143 62 95 104 119 127 114 93 85 84 73 69 66 64 66 67 63 58 55 52 51 50 49 49 52 51 52 53 61 81 94 100 107 109 113
196 195 201 223 234 230 230 211 185 192 187 184 192 177 151 107 98 112 123 126 117 95 79 89 78 74 71 66 64 65 65 61 57 52 50 50 48 46 46 48 51 52 59 73 92 99 108 114 116
172 202 221 230 229 222 212 197 190 207 194 178 191 184 151 122 129 126 123 117 111 97 83 84 81 76 71 66 62 63 62 59 55 51 47 46 48 45 43 45 48 52 58 65 82 97 106 115 119
203 206 230 233 231 225 209 183 203 207 204 195 192 189 159 155 138 131 127 112 98 92 85 75 72 76 74 70 64 59 60 59 54 50 45 43 43 41 44 44 46 52 60 63 75 87 103 112 119
229 198 221 225 228 230 184 178 212 221 212 157 195 207 184 163 142 135 129 120 102 86 79 75 67 63 63 72 68 61 58 60 55 49 42 38 40 41 43 42 46 49 60 64 72 84 95 112 117
200 214 228 224 223 216 176 190 186 196 181 181 212 254 85 142 147 144 142 140 126 96 72 67 63 63 58 60 69 68 63 61 59 54 46 37 36 37 37 39 42 51 58 64 70 86 95 113 122
199 222 231 226 225 202 183 201 189 189 202 211 212 202 151 157 165 169 173 175 175 163 107 65 60 60 61 56 61 68 67 59 55 54 43 30 24 26 31 38 40 48 62 67 71 90 119 133 138
193 222 217 210 215 201 192 204 201 210 226 227 221 196 171 174 181 187 189 187 187 181 161 84 52 59 62 55 47 40 49 51 40 42 34 28 26 21 25 30 34 45 69 74 83 113 134 137 138
186 223 220 212 195 201 212 204 209 227 243 260 228 188 181 188 194 198 197 192 186 185 187 151 62 65 67 59 53 43 32 38 33 22 22 18 27 11 11 8 360 5 53 66 97 108 134 135 146
210 216 219 221 199 221 221 226 239 245 252 251 198 183 191 197 201 201 200 195 192 191 191 190 217 88 67 48 34 33 23 22 8 2 337 328 6 343 354 351 349 337 316 161 110 139 145 137 142
193 202 231 245 233 225 228 244 241 250 239 216 201 198 202 204 203 200 200 198 198 198 193 190 202 119 110 47 9 6 3 2 348 341 318 288 277 266 278 305 317 318 272 237 219 199 172 166 143
160 217 248 235 221 216 231 249 234 241 218 216 213 211 209 212 208 208 206 204 202 201 198 196 203 186 197 239 247 305 308 315 325 325 308 285 260 248 241 236 242 278 270 245 214 201 182 174 164
194 226 245 211 202 200 226 255 237 214 214 227 227 221 215 213 213 212 207 204 202 199 199 201 205 235 239 254 257 270 287 292 315 310 300 290 263 247 238 226 229 250 250 247 213 204 209 200 189
216 243 250 238 200 207 226 258 256 226 230 238 236 228 221 220 222 218 207 199 200 203 199 198 203 226 255 266 253 252 261 280 295 298 295 306 277 244 237 222 224 228 229 230 220 211 208 205 203
241 247 253 255 217 227 240 254 267 253 244 246 242 231 226 229 231 221 206 198 194 201 201 208 209 228 255 250 242 256 262 280 279 284 292 288 292 255 232 218 217 223 220 225 221 214 203 204 200
255 253 263 265 253 248 253 264 269 265 252 250 246 241 242 240 230 210 202 197 188 196 207 219 222 231 240 248 241 249 253 265 272 271 276 280 283 278 234 220 214 223 225 227 220 212 195 193 190
243 256 266 270 261 257 273 272 270 254 240 240 241 243 249 256 248 232 214 207 201 205 218 230 232 231 237 249 254 253 256 263 267 267 267 268 269 272 249 220 218 222 224 222 221 211 201 197 199
242 248 263 273 291 249 281 271 238 227 217 236 249 253 258 259 252 243 232 221 220 222 226 235 240 243 245 244 246 247 251 264 264 264 265 264 261 260 252 235 222 221 222 223 223 218 208 198 204
256 253 262 266 271 263 255 277 245 232 228 242 256 268 274 278 263 250 241 236 234 239 237 240 239 243 244 234 228 229 237 246 255 255 257 260 253 251 250 236 227 219 223 228 225 221 218 204 203
271 310 261 252 248 261 236 249 262 217 242 260 269 275 279 280 272 254 245 242 243 242 242 244 245 247 249 247 237 239 242 248 252 249 246 250 246 244 245 237 232 224 222 226 224 227 218 212 211
266 284 243 222 229 248 233 230 261 227 240 267 271 272 282 288 287 278 267 260 252 246 249 252 251 258 259 253 246 244 245 245 246 246 242 244 244 239 239 234 230 229 226 226 225 225 221 218 217
261 270 269 240 227 243 190 228 250 239 247 254 271 280 285 289 292 295 299 290 282 270 263 261 258 263 261 256 254 248 248 244 241 243 241 242 244 241 239 235 230 231 232 228 227 224 222 220 218
245 245 251 266 261 268 215 235 236 99 351 289 283 291 304 303 301 300 291 291 292 290 281 271 265 267 263 258 260 253 249 248 245 244 246 242 244 241 241 237 231 234 238 232 228 222 221 220 220
230 231 274 273 284 268 248 249 266 164 330 324 319 325 319 314 307 306 303 307 307 304 301 288 278 278 272 265 263 261 252 251 250 247 246 245 246 240 238 238 231 232 235 233 228 223 221 220 220
263 203 203 227 265 262 256 249 254 264 299 320 324 318 312 314 315 312 309 314 313 310 307 305 291 284 282 277 270 265 259 255 253 248 243 242 245 240 240 240 231 230 231 231 226 223 221 219 220
185 201 229 237 251 266 269 264 13 276 292 303 314 314 311 312 316 311 311 316 316 319 317 310 301 297 291 284 278 270 266 260 256 251 249 247 245 239 237 240 233 231 230 230 227 222 220 220 221
227 234 219 242 248 243 266 271 68 5 339 333 331 332 331 325 321 319 320 325 324 320 320 315 307 300 293 286 279 273 272 266 261 257 256 253 248 241 236 237 234 232 230 229 228 223 221 220 220
Height
1509 1510 1512 1515 1514 1511 1510 1510 1512 1515 1517 1521 1521 1521 1520 1521 1523 1529 1530 1527 1528 1529 1530 1530 1531 1532 1532 1533 1533 1533 1533 1534 1534 1534 1534 1535 1535 1535 1536 1536 1536 1537 1537 1537 1538 1538 1538 1539 1539
1509 1511 1514 1515 1510 1508 1509 1510 1513 1515 1519 1522 1523 1523 1522 1524 1526 1527 1526 1526 1527 1528 1529 1530 1531 1531 1532 1532 1533 1533 1533 1533 1534 1534 1534 1534 1535 1535 1535 1536 1536 1536 1537 1537 1538 1538 1538 1539 1540
1510 1511 1514 1511 1509 1505 1507 1511 1513 1519 1521 1522 1523 1524 1524 1525 1526 1525 1526 1526 1527 1528 1529 1529 1530 1531 1531 1532 1532 1532 1533 1533 1533 1533 1534 1534 1534 1535 1535 1535 1536 1536 1537 1537 1538 1538 1539 1539 1540
1510 1513 1514 1511 1509 1509 1509 1513 1516 1519 1522 1522 1523 1523 1524 1525 1525 1525 1525 1526 1527 1528 1529 1529 1530 1531 1531 1532 1532 1532 1532 1532 1532 1533 1533 1533 1534 1534 1535 1535 1536 1536 1536 1537 1538 1538 1539 1539 1540
1510 1512 1510 1509 1508 1510 1513 1516 1517 1517 1519 1521 1522 1522 1524 1524 1523 1524 1524 1525 1527 1528 1528 1529 1529 1530 1530 1531 1531 1531 1531 1531 1532 1532 1532 1533 1533 1534 1534 1535 1535 1536 1536 1537 1537 1538 1539 1539 1540
1511 1510 1506 1505 1506 1511 1515 1517 1518 1517 1518 1521 1522 1522 1523 1523 1523 1523 1524 1525 1526 1527 1528 1528 1529 1529 1530 1530 1530 1530 1530 1530 1530 1531 1531 1532 1532 1533 1533 1534 1534 1535 1535 1536 1537 1537 1538 1539 1540
1511 1508 1504 1503 1505 1509 1514 1517 1517 1516 1517 1520 1520 1521 1521 1522 1522 1522 1523 1524 1525 1526 1527 1527 1527 1528 1528 1528 1529 1529 1529 1529 1529 1529 1530 1530 1531 1531 1532 1533 1533 1534 1535 1535 1536 1537 1537 1538 1539
1509 1509 1507 1506 1506 1507 1514 1516 1517 1517 1517 1519 1520 1519 1520 1520 1520 1521 1522 1523 1524 1525 1525 1526 1526 1526 1526 1527 1527 1527 1527 1527 1528 1528 1528 1529 1529 1530 1531 1531 1532 1532 1533 1534 1535 1535 1536 1537 1538
1509 1510 1504 1504 1506 1507 1513 1515 1517 1517 1518 1518 1518 1518 1518 1518 1519 1520 1521 1522 1523 1523 1524 1524 1524 1524 1525 1525 1525 1525 1525 1526 1526 1527 1527 1527 1528 1528 1529 1529 1530 1531 1531 1532 1533 1534 1535 1536 1537
1509 1505 1504 1507 1508 1509 1512 1513 1515 1516 1516 1516 1516 1516 1516 1516 1517 1518 1519 1519 1520 1521 1522 1522 1522 1522 1523 1523 1523 1523 1523 1524 1524 1525 1525 1525 1526 1526 1527 1527 1528 1529 1530 1531 1532 1533 1534 1535 1536
1508 1506 1507 1510 1511 1511 1512 1513 1514 1513 1511 1512 1513 1513 1514 1515 1516 1516 1517 1517 1518 1519 1519 1520 1520 1520 1521 1521 1520 1521 1521 1522 1522 1523 1523 1523 1524 1524 1525 1525 1526 1527 1528 1529 1530 1531 1532 1534 1535
1509 1509 1510 1510 1510 1511 1511 1511 1512 1511 1509 1510 1510 1511 1511 1512 1513 1513 1514 1515 1516 1517 1517 1517 1518 1518 1518 1518 1518 1519 1519 1519 1520 1520 1520 1521 1521 1522 1522 1523 1524 1525 1526 1527 1528 1529 1530 1531 1533
1508 1509 1510 1510 1510 1510 1510 1510 1510 1508 1508 1507 1508 1508 1509 1509 1510 1511 1513 1513 1513 1514 1514 1515 1515 1516 1516 1515 1516 1516 1517 1517 1517 1517 1518 1518 1519 1519 1520 1521 1522 1522 1523 1525 1526 1527 1528 1529 1531
1508 1509 1509 1509 1509 1509 1509 1508 1508 1503 1505 1505 1505 1506 1506 1507 1508 1509 1509 1510 1510 1511 1511 1512 1513 1513 1513 1513 1513 1514 1514 1514 1515 1515 1515 1516 1516 1516 1517 1518 1519 1520 1521 1522 1523 1524 1526 1527 1528
1509 1509 1507 1507 1507 1508 1509 1504 1502 1501 1502 1503 1503 1503 1504 1505 1505 1505 1506 1507 1507 1508 1509 1509 1509 1510 1510 1510 1510 1511 1511 1511 1512 1512 1512 1513 1513 1514 1514 1515 1516 1517 1519 1520 1521 1522 1523 1525 1526
1508 1505 1501 1502 1505 1506 1508 1494 1496 1499 1500 1500 1500 1501 1501 1502 1502 1503 1503 1504 1505 1505 1506 1506 1506 1507 1507 1507 1508 1508 1508 1508 1508 1509 1509 1510 1510 1511 1511 1512 1513 1515 1516 1517 1518 1519 1520 1522 1523
1503 1499 1496 1498 1503 1504 1503 1493 1495 1497 1498 1497 1497 1498 1498 1499 1499 1500 1500 1501 1501 1502 1502 1503 1503 1504 1504 1504 1504 1505 1505 1505 1505 1505 1506 1506 1507 1507 1508 1509 1510 1512 1513 1514 1515 1516 1517 1519 1520
1496 1495 1494 1495 1499 1502 1499 1493 1494 1496 1496 1495 1495 1495 1495 1495 1496 1496 1497 1498 1498 1499 1499 1499 1500 1500 1500 1501 1501 1501 1501 1501 1501 1502 1502 1503 1503 1504 1505 1506 1507 1508 1509 1510 1512 1513 1515 1516 1517
1499 1497 1494 1494 1500 1500 1494 1490 1490 1492 1493 1492 1492 1492 1492 1492 1493 1493 1493 1494 1494 1495 1495 1496 1496 1497 1497 1496 1497 1497 1497 1497 1497 1498 1498 1499 1499 1500 1501 1502 1504 1505 1506 1507 1509 1510 1511 1513 1514
1501 1498 1494 1495 1500 1499 1493 1488 1487 1488 1489 1490 1489 1489 1489 1489 1489 1489 1489 1490 1490 1491 1491 1492 1492 1493 1493 1493 1493 1493 1493 1494 1494 1494 1494 1495 1496 1497 1497 1499 1500 1501 1503 1504 1505 1507 1508 1509 1511
1498 1497 1495 1496 1498 1498 1496 1480 1480 1484 1486 1487 1487 1487 1487 1486 1486 1486 1486 1486 1486 1487 1487 1488 1488 1489 1489 1490 1490 1490 1490 1490 1490 1490 1490 1491 1492 1493 1494 1495 1496 1498 1499 1500 1501 1503 1504 1506 1508
1495 1498 1499 1499 1497 1487 1493 1476 1471 1479 1482 1483 1484 1484 1484 1484 1483 1483 1482 1482 1483 1483 1484 1484 1485 1485 1485 1486 1485 1486 1485 1485 1486 1486 1486 1487 1488 1488 1489 1490 1492 1494 1495 1496 1497 1499 1501 1502 1504
1498 1501 1500 1499 1496 1492 1489 1486 1467 1477 1477 1479 1481 1482 1481 1481 1480 1479 1479 1479 1480 1480 1481 1481 1481 1481 1481 1481 1482 1482 1481 1482 1482 1482 1482 1483 1483 1484 1485 1486 1487 1489 1491 1492 1493 1495 1496 1498 1500
1503 1502 1501 1499 1495 1487 1483 1481 1464 1471 1474 1476 1479 1480 1479 1478 1477 1477 1477 1477 1477 1477 1477 1477 1477 1477 1477 1477 1477 1477 1477 1477 1478 1478 1478 1478 1479 1479 1480 1481 1483 1484 1486 1487 1489 1490 1492 1494 1496
1502 1496 1487 1482 1480 1471 1487 1483 1469 1472 1476 1477 1478 1477 1477 1476 1475 1474 1474 1473 1473 1473 1473 1473 1473 1473 1473 1473 1473 1473 1473 1473 1474 1474 1474 1474 1474 1475 1475 1477 1478 1479 1481 1483 1484 1486 1487 1489 1491
1500 1497 1489 1479 1468 1465 1484 1475 1468 1476 1478 1478 1478 1477 1476 1474 1473 1472 1471 1471 1470 1470 1470 1469 1469 1469 1469 1469 1469 1469 1469 1469 1469 1469 1469 1469 1469 1470 1471 1472 1473 1475 1476 1478 1479 1481 1483 1485 1487
1500 1497 1498 1494 1493 1486 1467 1469 1472 1476 1477 1477 1476 1475 1474 1473 1471 1470 1469 1469 1468 1467 1466 1466 1465 1465 1465 1464 1464 1464 1464 1465 1464 1464 1464 1464 1465 1466 1467 1467 1468 1470 1471 1473 1474 1476 1478 1480 1482
1503 1500 1499 1494 1485 1471 1462 1465 1463 1471 1473 1474 1473 1473 1472 1471 1470 1469 1467 1466 1465 1464 1464 1463 1462 1461 1461 1460 1460 1460 1460 1460 1460 1459 1459 1460 1460 1461 1462 1462 1463 1464 1466 1467 1469 1471 1473 1475 1477
1503 1502 1497 1492 1490 1478 1465 1462 1469 1471 1473 1473 1473 1472 1471 1470 1468 1467 1466 1464 1463 1462 1461 1459 1459 1458 1457 1456 1456 1455 1455 1455 1455 1455 1455 1455 1455 1456 1456 1457 1458 1459 1460 1462 1464 1466 1468 1469 1471
1499 1497 1497 1492 1487 1487 1476 1469 1475 1475 1475 1474 1473 1472 1470 1469 1467 1466 1464 1462 1461 1459 1458 1456 1455 1454 1453 1452 1452 1451 1451 1450 1450 1450 1450 1450 1450 1451 1451 1452 1452 1454 1455 1456 1458 1460 1462 1464 1466